OK2ZI Weather Reports


Display with metric or nautical units.
time (UTC)temp
F
wind
direction
speed
MPH
gust
MPH
rain 1hr
in
rain 24hr
in
rain mn
in
humidity
%
barometer
mb
20260502214206 44 241 0.0 0.0 0.00 0.00 0.00 69 1017.0
20260502214010 43 241 5.0 5.0 0.00 0.00 0.00 68 1017.0
20260502213806 43 241 7.0 7.0 0.00 0.00 0.00 68 1017.0
20260502213606 43 241 8.0 8.0 0.00 0.00 0.00 74 1017.0
20260502213408 43 241 6.0 6.0 0.00 0.00 0.00 72 1017.0
20260502213207 43 241 5.0 5.0 0.00 0.00 0.00 72 1017.0
20260502213012 43 241 5.0 5.0 0.00 0.00 0.00 72 1017.0
20260502212806 43 241 5.0 5.0 0.00 0.00 0.00 72 1017.0
20260502212606 44 241 5.0 5.0 0.00 0.00 0.00 72 1017.0
20260502212406 45 241 5.0 5.0 0.00 0.00 0.00 69 1017.0
20260502212206 45 241 0.0 0.0 0.00 0.00 0.00 68 1017.0
20260502211805 46 242 6.0 6.0 0.00 0.00 0.00 65 1017.0
20260502211607 46 240 8.0 8.0 0.00 0.00 0.00 65 1017.0
20260502211405 45 240 5.0 5.0 0.00 0.00 0.00 64 1017.0
20260502211207 44 240 5.0 5.0 0.00 0.00 0.00 64 1017.0
20260502211008 44 240 0.0 0.0 0.00 0.00 0.00 67 1017.0
20260502210807 43 240 0.0 0.0 0.00 0.00 0.00 72 1017.0
20260502210606 44 240 0.0 0.0 0.00 0.00 0.00 74 1017.0
20260502210407 44 240 0.0 0.0 0.00 0.00 0.00 73 1017.0
20260502210205 44 240 0.0 0.0 0.00 0.00 0.00 73 1017.0
20260502210017 45 240 0.0 0.0 0.00 0.00 0.00 69 1017.0
20260502205804 48 240 7.0 7.0 0.00 0.00 0.00 62 1017.0
20260502205405 46 240 6.0 6.0 0.00 0.00 0.00 58 1017.0
20260502205206 45 240 0.0 0.0 0.00 0.00 0.00 61 1017.0
20260502205010 44 240 5.0 5.0 0.00 0.00 0.00 65 1017.0
20260502204606 44 240 0.0 0.0 0.00 0.00 0.00 73 1017.0
20260502204407 44 240 6.0 6.0 0.00 0.00 0.00 74 1017.0
20260502204207 44 240 8.0 8.0 0.00 0.00 0.00 72 1017.0
20260502204008 45 240 6.0 6.0 0.00 0.00 0.00 71 1017.0
20260502203807 46 240 0.0 0.0 0.00 0.00 0.00 68 1017.0
20260502203607 47 240 5.0 5.0 0.00 0.00 0.00 65 1017.0
20260502203016 49 240 0.0 0.0 0.00 0.00 0.00 59 1017.0
20260502202807 49 240 0.0 0.0 0.00 0.00 0.00 59 1017.0
20260502202607 49 240 0.0 0.0 0.00 0.00 0.00 59 1017.0
20260502202207 47 240 0.0 0.0 0.00 0.00 0.00 60 1017.0
20260502202011 47 240 0.0 0.0 0.00 0.00 0.00 61 1017.0
20260502201607 46 240 6.0 6.0 0.00 0.00 0.00 68 1017.0
20260502201406 46 240 5.0 5.0 0.00 0.00 0.00 69 1017.0
20260502201011 46 222 8.0 8.0 0.00 0.00 0.00 70 1017.0
20260502200806 47 222 8.0 8.0 0.00 0.00 0.00 68 1017.0
20260502200606 47 222 7.0 7.0 0.00 0.00 0.00 66 1017.0
20260502200406 49 222 6.0 6.0 0.00 0.00 0.00 62 1017.0
20260502200205 50 222 7.0 7.0 0.00 0.00 0.00 59 1017.0
20260502200021 50 222 0.0 0.0 0.00 0.00 0.00 59 1017.0
20260502195606 49 222 0.0 0.0 0.00 0.00 0.00 60 1017.0
20260502195405 48 222 5.0 5.0 0.00 0.00 0.00 61 1017.0
20260502195207 48 222 8.0 8.0 0.00 0.00 0.00 61 1017.0
20260502195011 47 222 6.0 6.0 0.00 0.00 0.00 62 1017.0
20260502194606 47 168 5.0 5.0 0.00 0.00 0.00 69 1017.0
20260502194407 48 168 0.0 0.0 0.00 0.00 0.00 60 1017.0
20260502194204 47 168 0.0 0.0 0.00 0.00 0.00 63 1017.0
20260502194009 47 168 0.0 0.0 0.00 0.00 0.00 66 1017.0
20260502193805 47 168 0.0 0.0 0.00 0.00 0.00 67 1017.0
20260502193605 47 168 0.0 0.0 0.00 0.00 0.00 67 1017.0
20260502193407 47 168 0.0 0.0 0.00 0.00 0.00 68 1017.0
20260502193016 52 168 6.0 6.0 0.00 0.00 0.00 56 1017.0
20260502192805 52 168 5.0 5.0 0.00 0.00 0.00 55 1017.0
20260502192605 52 168 0.0 0.0 0.00 0.00 0.00 57 1017.0
20260502192407 51 168 0.0 0.0 0.00 0.00 0.00 57 1017.0
20260502192207 51 168 0.0 0.0 0.00 0.00 0.00 57 1017.0
20260502192011 51 168 0.0 0.0 0.00 0.00 0.00 57 1017.0
20260502191805 51 168 0.0 0.0 0.00 0.00 0.00 58 1017.0
20260502191606 51 168 0.0 0.0 0.00 0.00 0.00 59 1017.0
20260502191204 52 168 0.0 0.0 0.00 0.00 0.00 57 1017.0
20260502191008 52 168 0.0 0.0 0.00 0.00 0.00 58 1017.0
20260502190807 52 168 0.0 0.0 0.00 0.00 0.00 58 1017.0
20260502190606 52 168 0.0 0.0 0.00 0.00 0.00 59 1017.0
20260502190405 52 168 0.0 0.0 0.00 0.00 0.00 59 1017.0
20260502190022 52 168 0.0 0.0 0.00 0.00 0.00 59 1017.0
20260502185807 53 168 0.0 0.0 0.00 0.00 0.00 57 1017.0
20260502185607 54 168 0.0 0.0 0.00 0.00 0.00 55 1017.0
20260502185207 55 168 0.0 0.0 0.00 0.00 0.00 56 1017.0
20260502185011 55 168 0.0 0.0 0.00 0.00 0.00 55 1017.0
20260502184805 55 168 0.0 0.0 0.00 0.00 0.00 54 1017.0
20260502184607 55 168 0.0 0.0 0.00 0.00 0.00 53 1017.0
20260502184407 55 168 0.0 0.0 0.00 0.00 0.00 53 1017.0
20260502184206 55 168 0.0 0.0 0.00 0.00 0.00 53 1017.0
20260502183807 55 168 0.0 0.0 0.00 0.00 0.00 54 1017.0
20260502183606 56 168 0.0 0.0 0.00 0.00 0.00 53 1017.0
20260502183405 56 168 0.0 0.0 0.00 0.00 0.00 53 1017.0
20260502183016 57 174 0.0 0.0 0.00 0.00 0.00 51 1017.0
20260502182805 57 174 0.0 0.0 0.00 0.00 0.00 49 1017.0
20260502182606 58 174 0.0 0.0 0.00 0.00 0.00 50 1017.0
20260502182405 58 174 0.0 0.0 0.00 0.00 0.00 50 1017.0
20260502182205 58 174 0.0 0.0 0.00 0.00 0.00 50 1017.0
20260502182009 59 174 0.0 0.0 0.00 0.00 0.00 49 1017.0
20260502181606 60 174 0.0 0.0 0.00 0.00 0.00 47 1017.0
20260502181207 61 174 0.0 0.0 0.00 0.00 0.00 45 1017.0
20260502180606 62 174 0.0 0.0 0.00 0.00 0.00 45 1017.0
20260502180407 62 174 0.0 0.0 0.00 0.00 0.00 45 1017.0
20260502180206 63 174 0.0 0.0 0.00 0.00 0.00 44 1017.0
20260502170207 75 126 0.0 0.0 0.00 0.00 0.00 30 1017.0
20260502164012 74 55 7.0 7.0 0.00 0.00 0.00 27 1017.0
20260502163805 74 11 0.0 0.0 0.00 0.00 0.00 26 1017.0
20260502163606 74 11 0.0 0.0 0.00 0.00 0.00 27 1017.0
20260502163406 74 6 5.0 5.0 0.00 0.00 0.00 31 1017.0
20260502163206 74 35 6.0 6.0 0.00 0.00 0.00 27 1017.0
20260502163016 74 35 5.0 5.0 0.00 0.00 0.00 27 1017.0
20260502162806 74 35 0.0 0.0 0.00 0.00 0.00 27 1017.0
20260502162606 77 212 0.0 0.0 0.00 0.00 0.00 28 1017.0
20260502162407 77 212 0.0 0.0 0.00 0.00 0.00 26 1017.0
20260502162207 76 212 5.0 5.0 0.00 0.00 0.00 26 1017.0
20260502162015 76 212 0.0 0.0 0.00 0.00 0.00 29 1017.0
20260502161807 76 212 0.0 0.0 0.00 0.00 0.00 27 1017.0
20260502161606 76 212 0.0 0.0 0.00 0.00 0.00 29 1017.0
20260502161407 76 212 0.0 0.0 0.00 0.00 0.00 28 1017.0
20260502161206 75 212 5.0 5.0 0.00 0.00 0.00 28 1017.0
20260502161010 74 233 8.0 8.0 0.00 0.00 0.00 26 1018.0
20260502160813 74 260 5.0 5.0 0.00 0.00 0.00 29 1018.0
20260502160606 73 264 0.0 0.0 0.00 0.00 0.00 27 1018.0
20260502160207 75 265 7.0 7.0 0.00 0.00 0.00 28 1017.0
20260502152207 73 336 7.0 7.0 0.00 0.00 0.00 28 1018.0
20260502152012 73 333 5.0 5.0 0.00 0.00 0.00 31 1018.0
20260502151808 73 41 0.0 0.0 0.00 0.00 0.00 29 1018.0
20260502151607 75 282 8.0 8.0 0.00 0.00 0.00 31 1018.0
20260502151407 76 284 7.0 7.0 0.00 0.00 0.00 29 1018.0
20260502151013 78 180 9.0 9.0 0.00 0.00 0.00 25 1018.0
20260502150807 78 183 5.0 5.0 0.00 0.00 0.00 24 1018.0
20260502150611 78 183 5.0 5.0 0.00 0.00 0.00 25 1018.0
20260502150412 78 211 0.0 0.0 0.00 0.00 0.00 26 1018.0
20260502150206 78 211 0.0 0.0 0.00 0.00 0.00 25 1018.0
20260502130607 76 196 5.0 5.0 0.00 0.00 0.00 26 1019.0
20260502130407 76 196 8.0 8.0 0.00 0.00 0.00 26 1019.0
20260502130219 76 120 5.0 5.0 0.00 0.00 0.00 26 1019.0
20260502123806 73 50 0.0 0.0 0.00 0.00 0.00 28 1020.0
20260502123608 73 189 5.0 5.0 0.00 0.00 0.00 27 1020.0
20260502123408 73 190 6.0 6.0 0.00 0.00 0.00 28 1020.0
20260502123206 72 90 0.0 0.0 0.00 0.00 0.00 29 1020.0
20260502123015 72 126 0.0 0.0 0.00 0.00 0.00 28 1020.0
20260502122807 72 59 9.0 9.0 0.00 0.00 0.00 28 1020.0
20260502122406 71 106 0.0 0.0 0.00 0.00 0.00 31 1020.0
20260502122012 70 72 18.0 19.0 0.00 0.00 0.00 32 1020.0
20260502121807 70 348 9.0 9.0 0.00 0.00 0.00 31 1020.0
20260502121606 71 318 14.0 14.0 0.00 0.00 0.00 31 1020.0
20260502121407 71 256 5.0 5.0 0.00 0.00 0.00 30 1020.0
20260502121208 71 43 5.0 5.0 0.00 0.00 0.00 30 1020.0
20260502121012 71 84 8.0 8.0 0.00 0.00 0.00 31 1020.0
20260502120806 71 348 8.0 8.0 0.00 0.00 0.00 31 1020.0
20260502120606 71 73 8.0 8.0 0.00 0.00 0.00 30 1020.0
20260502120407 71 90 8.0 8.0 0.00 0.00 0.00 31 1020.0
20260502120210 71 256 8.0 8.0 0.00 0.00 0.00 34 1020.0
20260502115806 71 91 7.0 7.0 0.00 0.00 0.00 30 1020.0
20260502115606 71 81 0.0 0.0 0.00 0.00 0.00 31 1020.0
20260502115407 70 284 5.0 5.0 0.00 0.00 0.00 31 1020.0
20260502114810 70 304 14.0 14.0 0.00 0.00 0.00 37 1020.0
20260502114611 70 271 8.0 8.0 0.00 0.00 0.00 39 1020.0
20260502114208 70 330 9.0 9.0 0.00 0.00 0.00 36 1020.0
20260502114012 70 354 0.0 0.0 0.00 0.00 0.00 33 1020.0
20260502113608 73 185 0.0 0.0 0.00 0.00 0.00 35 1020.0
20260502113408 73 184 8.0 8.0 0.00 0.00 0.00 31 1020.0
20260502113207 72 184 6.0 6.0 0.00 0.00 0.00 32 1020.0
20260502113016 71 179 5.0 5.0 0.00 0.00 0.00 30 1020.0
20260502112810 70 183 14.0 14.0 0.00 0.00 0.00 33 1020.0
20260502112606 69 232 15.0 17.0 0.00 0.00 0.00 34 1020.0
20260502112407 69 216 9.0 9.0 0.00 0.00 0.00 38 1020.0
20260502112207 69 282 14.0 14.0 0.00 0.00 0.00 34 1020.0
20260502112025 69 299 9.0 9.0 0.00 0.00 0.00 38 1020.0
20260502111806 69 264 9.0 9.0 0.00 0.00 0.00 35 1020.0
20260502111606 71 282 16.0 17.0 0.00 0.00 0.00 37 1020.0
20260502111407 70 210 17.0 18.0 0.00 0.00 0.00 33 1020.0
20260502111206 70 216 14.0 14.0 0.00 0.00 0.00 34 1020.0
20260502111016 69 270 14.0 14.0 0.00 0.00 0.00 37 1020.0
20260502110808 68 230 0.0 0.0 0.00 0.00 0.00 33 1020.0
20260502110608 68 244 18.0 19.0 0.00 0.00 0.00 38 1020.0
20260502110407 69 300 9.0 9.0 0.00 0.00 0.00 37 1021.0
20260502110210 70 271 0.0 0.0 0.00 0.00 0.00 34 1021.0
20260502110019 71 272 8.0 8.0 0.00 0.00 0.00 37 1021.0
20260502105808 70 192 8.0 8.0 0.00 0.00 0.00 35 1021.0
20260502105606 69 186 8.0 8.0 0.00 0.00 0.00 31 1021.0
20260502105406 69 276 16.0 17.0 0.00 0.00 0.00 34 1020.0
20260502105206 68 305 8.0 8.0 0.00 0.00 0.00 39 1020.0
20260502104806 68 10 15.0 15.0 0.00 0.00 0.00 35 1021.0
20260502104607 69 217 8.0 8.0 0.00 0.00 0.00 32 1021.0
20260502104408 71 180 0.0 0.0 0.00 0.00 0.00 33 1021.0
20260502104013 71 78 5.0 5.0 0.00 0.00 0.00 33 1021.0
20260502103806 71 186 6.0 6.0 0.00 0.00 0.00 31 1021.0
20260502103607 70 173 0.0 0.0 0.00 0.00 0.00 34 1021.0
20260502103404 69 94 0.0 0.0 0.00 0.00 0.00 33 1021.0
20260502103015 69 192 15.0 17.0 0.00 0.00 0.00 34 1021.0
20260502102809 72 152 7.0 7.0 0.00 0.00 0.00 32 1021.0
20260502102607 72 173 0.0 0.0 0.00 0.00 0.00 33 1021.0
20260502102407 72 192 6.0 6.0 0.00 0.00 0.00 32 1021.0
20260502102207 71 184 8.0 8.0 0.00 0.00 0.00 33 1021.0
20260502102013 71 173 9.0 9.0 0.00 0.00 0.00 33 1021.0
20260502101809 70 196 0.0 0.0 0.00 0.00 0.00 33 1021.0
20260502101608 70 196 16.0 17.0 0.00 0.00 0.00 30 1021.0
20260502101206 71 192 8.0 8.0 0.00 0.00 0.00 31 1021.0
20260502101013 70 192 8.0 8.0 0.00 0.00 0.00 31 1021.0
20260502100807 69 162 8.0 8.0 0.00 0.00 0.00 34 1021.0
20260502100207 68 30 6.0 6.0 0.00 0.00 0.00 34 1021.0
20260502091207 69 112 5.0 5.0 0.00 0.00 0.00 34 1022.0
20260502091007 68 180 8.0 8.0 0.00 0.00 0.00 34 1022.0
20260502090807 68 105 6.0 6.0 0.00 0.00 0.00 34 1022.0
20260502090607 68 54 8.0 8.0 0.00 0.00 0.00 35 1022.0
20260502090405 69 54 9.0 9.0 0.00 0.00 0.00 35 1022.0
20260502090207 69 162 0.0 0.0 0.00 0.00 0.00 34 1022.0
20260502071406 65 78 0.0 0.0 0.00 0.00 0.00 38 1022.0
20260502071207 65 78 0.0 0.0 0.00 0.00 0.00 40 1022.0
20260502071008 64 92 0.0 0.0 0.00 0.00 0.00 39 1022.0
20260502070807 64 88 0.0 0.0 0.00 0.00 0.00 39 1022.0
20260502070606 63 50 14.0 14.0 0.00 0.00 0.00 40 1022.0
20260502070407 63 108 6.0 6.0 0.00 0.00 0.00 42 1022.0
20260502065807 62 78 7.0 7.0 0.00 0.00 0.00 45 1022.0
20260502065606 62 35 0.0 0.0 0.00 0.00 0.00 44 1022.0
20260502065407 62 32 6.0 6.0 0.00 0.00 0.00 47 1022.0
20260502065207 62 39 9.0 9.0 0.00 0.00 0.00 48 1022.0
20260502065011 62 6 6.0 6.0 0.00 0.00 0.00 47 1022.0
20260502064606 61 60 7.0 7.0 0.00 0.00 0.00 48 1022.0
20260502064407 61 12 9.0 9.0 0.00 0.00 0.00 47 1022.0
20260502064206 61 330 7.0 7.0 0.00 0.00 0.00 49 1022.0
20260502064013 61 331 0.0 0.0 0.00 0.00 0.00 47 1022.0
20260502063807 61 34 9.0 9.0 0.00 0.00 0.00 49 1022.0
20260502063607 61 348 5.0 5.0 0.00 0.00 0.00 50 1022.0
20260502063406 60 347 7.0 7.0 0.00 0.00 0.00 49 1022.0
20260502062807 60 32 5.0 5.0 0.00 0.00 0.00 48 1022.0
20260502062605 60 348 7.0 7.0 0.00 0.00 0.00 48 1022.0
20260502062407 60 347 8.0 8.0 0.00 0.00 0.00 52 1022.0
20260502062206 60 40 5.0 5.0 0.00 0.00 0.00 50 1022.0
20260502062012 60 24 9.0 9.0 0.00 0.00 0.00 48 1022.0
20260502061807 60 17 8.0 8.0 0.00 0.00 0.00 50 1022.0
20260502061606 60 342 0.0 0.0 0.00 0.00 0.00 52 1022.0
20260502061407 60 302 6.0 6.0 0.00 0.00 0.00 53 1022.0
20260502061011 60 354 0.0 0.0 0.00 0.00 0.00 50 1022.0
20260502060807 59 326 9.0 9.0 0.00 0.00 0.00 49 1022.0
20260502060607 59 40 14.0 14.0 0.00 0.00 0.00 50 1022.0
20260502060407 59 47 8.0 8.0 0.00 0.00 0.00 51 1022.0
20260502060205 58 28 9.0 9.0 0.00 0.00 0.00 50 1022.0
20260502060024 58 54 8.0 8.0 0.00 0.00 0.00 52 1022.0
20260502055806 58 294 0.0 0.0 0.00 0.00 0.00 54 1022.0
20260502055606 57 303 0.0 0.0 0.00 0.00 0.00 55 1022.0
20260502055406 57 310 7.0 7.0 0.00 0.00 0.00 55 1022.0
20260502055207 56 312 5.0 5.0 0.00 0.00 0.00 56 1022.0
20260502055011 56 312 6.0 6.0 0.00 0.00 0.00 58 1022.0
20260502054606 55 292 9.0 9.0 0.00 0.00 0.00 59 1022.0
20260502054207 55 282 7.0 7.0 0.00 0.00 0.00 61 1022.0
20260502053807 54 292 8.0 8.0 0.00 0.00 0.00 63 1022.0
20260502053606 54 280 9.0 9.0 0.00 0.00 0.00 62 1022.0
20260502053407 54 294 8.0 8.0 0.00 0.00 0.00 63 1022.0
20260502053207 54 288 7.0 7.0 0.00 0.00 0.00 64 1022.0
20260502053016 54 300 0.0 0.0 0.00 0.00 0.00 65 1022.0
20260502052806 55 300 5.0 5.0 0.00 0.00 0.00 63 1022.0
20260502052606 54 300 0.0 0.0 0.00 0.00 0.00 60 1022.0
20260502052206 53 300 5.0 5.0 0.00 0.00 0.00 63 1022.0
20260502051806 52 294 7.0 7.0 0.00 0.00 0.00 63 1022.0
20260502051406 51 294 0.0 0.0 0.00 0.00 0.00 69 1022.0
20260502051206 51 294 0.0 0.0 0.00 0.00 0.00 69 1022.0
20260502050806 51 286 6.0 6.0 0.00 0.00 0.00 69 1022.0
20260502050606 51 286 0.0 0.0 0.00 0.00 0.00 67 1022.0
20260502050406 51 286 0.0 0.0 0.00 0.00 0.00 66 1022.0
20260502050018 49 282 0.0 0.0 0.00 0.00 0.00 68 1022.0
20260502045806 48 282 0.0 0.0 0.00 0.00 0.00 71 1022.0
20260502045407 47 282 0.0 0.0 0.00 0.00 0.00 71 1022.0
20260502045207 46 282 0.0 0.0 0.00 0.00 0.00 74 1022.0
20260502045010 46 282 5.0 5.0 0.00 0.00 0.00 75 1022.0
20260502044807 45 282 0.0 0.0 0.00 0.00 0.00 75 1022.0
20260502044611 45 282 0.0 0.0 0.00 0.00 0.00 76 1022.0
20260502044406 45 282 0.0 0.0 0.00 0.00 0.00 77 1022.0
20260502044206 44 282 0.0 0.0 0.00 0.00 0.00 78 1022.0
20260502044012 44 282 0.0 0.0 0.00 0.00 0.00 78 1022.0
20260502043806 44 282 0.0 0.0 0.00 0.00 0.00 78 1022.0
20260502043606 44 282 0.0 0.0 0.00 0.00 0.00 78 1022.0
20260502043206 43 282 0.0 0.0 0.00 0.00 0.00 78 1022.0
20260502042807 42 282 0.0 0.0 0.00 0.00 0.00 77 1022.0
20260502042613 42 282 0.0 0.0 0.00 0.00 0.00 78 1022.0
20260502042407 41 282 0.0 0.0 0.00 0.00 0.00 79 1022.0
20260502042206 41 282 0.0 0.0 0.00 0.00 0.00 80 1022.0
20260502042011 40 282 0.0 0.0 0.00 0.00 0.00 81 1022.0
20260502041406 40 282 0.0 0.0 0.00 0.00 0.00 83 1022.0
20260502041012 40 282 0.0 0.0 0.00 0.00 0.00 83 1022.0
20260502040806 40 282 0.0 0.0 0.00 0.00 0.00 83 1022.0
20260502040607 39 282 0.0 0.0 0.00 0.00 0.00 83 1022.0
20260502040407 39 282 0.0 0.0 0.00 0.00 0.00 84 1022.0
20260502040207 39 282 0.0 0.0 0.00 0.00 0.00 83 1022.0
20260502040019 39 282 0.0 0.0 0.00 0.00 0.00 83 1022.0
20260502035605 39 282 6.0 6.0 0.00 0.00 0.00 84 1022.0
20260502035206 39 282 0.0 0.0 0.00 0.00 0.00 84 1022.0
20260502035010 39 282 0.0 0.0 0.00 0.00 0.00 84 1022.0
20260502034806 39 282 0.0 0.0 0.00 0.00 0.00 84 1022.0
20260502034607 39 282 0.0 0.0 0.00 0.00 0.00 84 1022.0
20260502034404 39 282 0.0 0.0 0.00 0.00 0.00 84 1022.0
20260502034207 39 282 0.0 0.0 0.00 0.00 0.00 84 1022.0
20260502033806 39 282 0.0 0.0 0.00 0.00 0.00 84 1022.0
20260502033606 39 282 0.0 0.0 0.00 0.00 0.00 84 1022.0
20260502033406 39 282 5.0 5.0 0.00 0.00 0.00 84 1022.0
20260502033206 39 282 5.0 5.0 0.00 0.00 0.00 83 1022.0
20260502033015 39 282 0.0 0.0 0.00 0.00 0.00 83 1022.0
20260502032806 40 282 0.0 0.0 0.00 0.00 0.00 82 1022.0
20260502032606 40 282 0.0 0.0 0.00 0.00 0.00 82 1022.0
20260502032406 40 282 0.0 0.0 0.00 0.00 0.00 81 1022.0
20260502032206 40 282 0.0 0.0 0.00 0.00 0.00 80 1022.0
20260502032011 41 282 0.0 0.0 0.00 0.00 0.00 79 1022.0
20260502031807 42 282 0.0 0.0 0.00 0.00 0.00 78 1022.0
20260502031605 41 281 5.0 5.0 0.00 0.00 0.00 77 1022.0
20260502031206 40 281 8.0 8.0 0.00 0.00 0.00 79 1022.0
20260502031010 40 281 0.0 0.0 0.00 0.00 0.00 80 1022.0
20260502030807 40 281 0.0 0.0 0.00 0.00 0.00 81 1022.0
20260502030607 40 281 0.0 0.0 0.00 0.00 0.00 81 1022.0
20260502030407 40 281 0.0 0.0 0.00 0.00 0.00 82 1022.0
20260502030206 40 281 0.0 0.0 0.00 0.00 0.00 81 1022.0
20260502030027 41 281 0.0 0.0 0.00 0.00 0.00 80 1022.0
20260502025806 41 282 0.0 0.0 0.00 0.00 0.00 80 1022.0
20260502025607 41 282 0.0 0.0 0.00 0.00 0.00 79 1022.0
20260502025407 41 282 0.0 0.0 0.00 0.00 0.00 79 1022.0
20260502025206 42 282 0.0 0.0 0.00 0.00 0.00 79 1022.0
20260502025010 42 282 0.0 0.0 0.00 0.00 0.00 78 1022.0
20260502024806 42 282 0.0 0.0 0.00 0.00 0.00 77 1022.0
20260502024606 41 282 6.0 6.0 0.00 0.00 0.00 77 1022.0
20260502024407 41 282 0.0 0.0 0.00 0.00 0.00 79 1022.0
20260502024012 40 282 0.0 0.0 0.00 0.00 0.00 81 1022.0
20260502023806 40 282 0.0 0.0 0.00 0.00 0.00 80 1022.0
20260502023607 39 282 0.0 0.0 0.00 0.00 0.00 83 1022.0
20260502023406 39 282 0.0 0.0 0.00 0.00 0.00 83 1022.0
20260502023206 40 282 5.0 5.0 0.00 0.00 0.00 82 1022.0
20260502023016 39 282 0.0 0.0 0.00 0.00 0.00 81 1022.0
20260502022807 39 282 7.0 7.0 0.00 0.00 0.00 82 1022.0
20260502022605 39 282 0.0 0.0 0.00 0.00 0.00 83 1022.0
20260502022406 39 282 5.0 5.0 0.00 0.00 0.00 83 1022.0
20260502022206 39 282 0.0 0.0 0.00 0.00 0.00 83 1022.0
20260502022011 39 282 5.0 5.0 0.00 0.00 0.00 84 1022.0
20260502021807 39 282 5.0 5.0 0.00 0.00 0.00 83 1022.0
20260502021606 39 282 5.0 5.0 0.00 0.00 0.00 83 1022.0
20260502021407 39 282 6.0 6.0 0.00 0.00 0.00 83 1022.0
20260502021207 39 282 0.0 0.0 0.00 0.00 0.00 84 1022.0
20260502021011 39 282 0.0 0.0 0.00 0.00 0.00 83 1022.0
20260502020807 39 282 6.0 6.0 0.00 0.00 0.00 83 1022.0
20260502020607 39 282 8.0 8.0 0.00 0.00 0.00 83 1022.0
20260502020407 39 282 8.0 8.0 0.00 0.00 0.00 84 1022.0
20260502020206 39 282 8.0 8.0 0.00 0.00 0.00 83 1022.0
20260502020026 39 282 0.0 0.0 0.00 0.00 0.00 83 1022.0
20260502015805 40 282 5.0 5.0 0.00 0.00 0.00 83 1022.0
20260502015607 40 282 0.0 0.0 0.00 0.00 0.00 83 1022.0
20260502015407 40 282 0.0 0.0 0.00 0.00 0.00 82 1022.0
20260502015206 40 282 0.0 0.0 0.00 0.00 0.00 82 1022.0
20260502015011 40 282 0.0 0.0 0.00 0.00 0.00 82 1022.0
20260502014806 40 282 0.0 0.0 0.00 0.00 0.00 82 1022.0
20260502014606 40 282 0.0 0.0 0.00 0.00 0.00 82 1022.0
20260502014406 40 282 0.0 0.0 0.00 0.00 0.00 82 1022.0
20260502014208 40 282 0.0 0.0 0.00 0.00 0.00 82 1022.0
20260502013606 39 282 6.0 6.0 0.00 0.00 0.00 83 1022.0
20260502013014 39 282 5.0 5.0 0.00 0.00 0.00 84 1022.0
20260502012807 40 282 5.0 5.0 0.00 0.00 0.00 83 1022.0
20260502012606 40 282 0.0 0.0 0.00 0.00 0.00 83 1022.0
20260502012407 40 282 5.0 5.0 0.00 0.00 0.00 83 1022.0
20260502012206 40 282 5.0 5.0 0.00 0.00 0.00 82 1022.0
20260502012011 40 282 5.0 5.0 0.00 0.00 0.00 82 1022.0
20260502011607 41 282 0.0 0.0 0.00 0.00 0.00 80 1022.0
20260502011407 41 282 5.0 5.0 0.00 0.00 0.00 80 1022.0
20260502011206 41 282 0.0 0.0 0.00 0.00 0.00 79 1022.0
20260502011012 42 282 5.0 5.0 0.00 0.00 0.00 79 1022.0
20260502010806 42 282 6.0 6.0 0.00 0.00 0.00 79 1022.0
20260502010606 42 282 0.0 0.0 0.00 0.00 0.00 78 1022.0
20260502010407 41 282 0.0 0.0 0.00 0.00 0.00 79 1022.0
20260502005807 41 282 0.0 0.0 0.00 0.00 0.00 80 1022.0
20260502005606 41 282 0.0 0.0 0.00 0.00 0.00 80 1022.0
20260502005206 41 282 9.0 9.0 0.00 0.00 0.00 80 1022.0
20260502005009 41 282 7.0 7.0 0.00 0.00 0.00 80 1022.0
20260502004806 42 282 5.0 5.0 0.00 0.00 0.00 80 1022.0
20260502004607 42 282 5.0 5.0 0.00 0.00 0.00 79 1022.0
20260502004406 42 282 7.0 7.0 0.00 0.00 0.00 79 1022.0
20260502004205 42 288 6.0 6.0 0.00 0.00 0.00 80 1022.0
20260502004012 42 287 5.0 5.0 0.00 0.00 0.00 80 1022.0
20260502003606 42 288 6.0 6.0 0.00 0.00 0.00 79 1022.0
20260502003407 42 288 0.0 0.0 0.00 0.00 0.00 79 1022.0
20260502003206 42 288 0.0 0.0 0.00 0.00 0.00 79 1022.0
20260502002807 42 294 7.0 7.0 0.00 0.00 0.00 78 1022.0
20260502002606 42 294 8.0 8.0 0.00 0.00 0.00 77 1022.0
20260502002407 43 312 6.0 6.0 0.00 0.00 0.00 76 1022.0
20260502002206 43 318 6.0 6.0 0.00 0.00 0.00 76 1022.0
20260502002012 43 318 0.0 0.0 0.00 0.00 0.00 76 1022.0
20260502001807 44 318 0.0 0.0 0.00 0.00 0.00 75 1022.0
20260502001607 43 318 0.0 0.0 0.00 0.00 0.00 74 1022.0
20260502001407 43 318 0.0 0.0 0.00 0.00 0.00 74 1022.0
20260502001207 42 318 6.0 6.0 0.00 0.00 0.00 75 1022.0
20260502001011 42 318 5.0 5.0 0.00 0.00 0.00 76 1022.0
20260502000806 42 318 5.0 5.0 0.00 0.00 0.00 78 1022.0
20260502000607 42 318 0.0 0.0 0.00 0.00 0.00 80 1022.0
20260502000409 42 318 6.0 6.0 0.00 0.00 0.00 79 1022.0
20260502000207 42 318 5.0 5.0 0.00 0.00 0.00 78 1022.0
20260502000021 42 318 0.0 0.0 0.00 0.00 0.00 78 1022.0
20260501235807 42 318 5.0 5.0 0.00 0.00 0.00 77 1022.0
20260501235606 43 318 0.0 0.0 0.00 0.00 0.00 75 1022.0
20260501235407 44 318 0.0 0.0 0.00 0.00 0.00 75 1022.0
20260501235207 44 318 0.0 0.0 0.00 0.00 0.00 75 1022.0
20260501235009 44 318 0.0 0.0 0.00 0.00 0.00 75 1022.0
20260501234806 44 318 0.0 0.0 0.00 0.00 0.00 74 1022.0
20260501234407 44 318 0.0 0.0 0.00 0.00 0.00 73 1022.0
20260501234207 44 318 0.0 0.0 0.00 0.00 0.00 73 1022.0
20260501234012 45 318 0.0 0.0 0.00 0.00 0.00 73 1022.0
20260501233807 45 318 0.0 0.0 0.00 0.00 0.00 72 1022.0
20260501233407 44 318 0.0 0.0 0.00 0.00 0.00 72 1022.0
20260501233206 44 318 5.0 5.0 0.00 0.00 0.00 73 1022.0
20260501233016 44 318 0.0 0.0 0.00 0.00 0.00 73 1022.0
20260501232807 44 318 0.0 0.0 0.00 0.00 0.00 74 1022.0
20260501232607 44 318 0.0 0.0 0.00 0.00 0.00 74 1022.0
20260501232207 44 318 0.0 0.0 0.00 0.00 0.00 73 1023.0
20260501232011 45 318 0.0 0.0 0.00 0.00 0.00 73 1022.0
20260501231807 45 318 0.0 0.0 0.00 0.00 0.00 72 1022.0
20260501231606 45 318 0.0 0.0 0.00 0.00 0.00 72 1022.0
20260501231407 45 318 0.0 0.0 0.00 0.00 0.00 72 1023.0
20260501231207 45 318 0.0 0.0 0.00 0.00 0.00 72 1023.0
20260501231009 45 318 0.0 0.0 0.00 0.00 0.00 71 1022.0
20260501230606 46 318 0.0 0.0 0.00 0.00 0.00 69 1022.0
20260501230406 46 318 0.0 0.0 0.00 0.00 0.00 69 1023.0
20260501230207 46 318 0.0 0.0 0.00 0.00 0.00 69 1023.0
20260501230018 46 318 0.0 0.0 0.00 0.00 0.00 70 1023.0
20260501225611 45 318 0.0 0.0 0.00 0.00 0.00 71 1023.0
20260501225406 45 318 0.0 0.0 0.00 0.00 0.00 71 1023.0
20260501225011 46 318 0.0 0.0 0.00 0.00 0.00 70 1023.0
20260501224606 47 318 0.0 0.0 0.00 0.00 0.00 68 1023.0
20260501224406 47 318 0.0 0.0 0.00 0.00 0.00 66 1023.0
20260501224207 48 318 5.0 5.0 0.00 0.00 0.00 64 1023.0
20260501223807 47 306 0.0 0.0 0.00 0.00 0.00 65 1023.0
20260501223607 47 294 6.0 6.0 0.00 0.00 0.00 65 1023.0
20260501223406 46 300 6.0 6.0 0.00 0.00 0.00 65 1023.0
20260501223206 45 300 8.0 8.0 0.00 0.00 0.00 69 1023.0
20260501223015 45 300 0.0 0.0 0.00 0.00 0.00 71 1023.0
20260501222807 45 300 0.0 0.0 0.00 0.00 0.00 72 1023.0
20260501222606 45 300 0.0 0.0 0.00 0.00 0.00 72 1023.0
20260501222406 45 300 0.0 0.0 0.00 0.00 0.00 72 1023.0
20260501222206 46 300 0.0 0.0 0.00 0.00 0.00 72 1023.0
20260501222011 46 300 0.0 0.0 0.00 0.00 0.00 71 1023.0
20260501221807 46 300 0.0 0.0 0.00 0.00 0.00 71 1023.0
20260501221606 46 300 0.0 0.0 0.00 0.00 0.00 71 1023.0
20260501221406 46 300 0.0 0.0 0.00 0.00 0.00 72 1023.0
20260501221207 46 300 0.0 0.0 0.00 0.00 0.00 72 1023.0
20260501221010 46 300 0.0 0.0 0.00 0.00 0.00 72 1023.0
20260501220806 46 300 0.0 0.0 0.00 0.00 0.00 72 1023.0
20260501220407 46 300 0.0 0.0 0.00 0.00 0.00 72 1023.0
20260501220207 46 300 0.0 0.0 0.00 0.00 0.00 71 1023.0
20260501220025 46 300 0.0 0.0 0.00 0.00 0.00 71 1023.0
20260501215806 46 300 0.0 0.0 0.00 0.00 0.00 71 1023.0
20260501215606 46 300 0.0 0.0 0.00 0.00 0.00 71 1023.0
20260501215406 46 300 0.0 0.0 0.00 0.00 0.00 71 1023.0
20260501215206 47 300 0.0 0.0 0.00 0.00 0.00 70 1023.0
20260501215010 47 300 0.0 0.0 0.00 0.00 0.00 70 1023.0
20260501214806 47 300 0.0 0.0 0.00 0.00 0.00 70 1023.0